Temp
-9 -9 -9 -9 -9 -9 -9 -10 -9 -9 -9 -9 -8 -9 -8 -8 -8 -8 -9 -9 -8 -8 -8 -8 -8 -8 -7 -7 -7 -7 -6 -7 -7 -7 -8 -7 -7 -7 -7 -7 -8 -7 -8 -7 -8
-10 -10 -10 -9 -9 -9 -9 -9 -9 -9 -9 -9 -9 -9 -9 -9 -8 -8 -9 -8 -8 -8 -9 -8 -8 -8 -8 -7 -7 -7 -6 -7 -7 -8 -8 -7 -7 -6 -7 -7 -7 -7 -8 -8 -8
-10 -10 -10 -9 -9 -9 -9 -10 -9 -9 -9 -9 -9 -9 -9 -10 -10 -9 -8 -8 -8 -9 -9 -9 -8 -8 -8 -8 -7 -7 -7 -7 -8 -8 -8 -7 -7 -6 -7 -8 -7 -8 -8 -8 -8
-10 -10 -10 -10 -10 -10 -10 -10 -10 -9 -9 -9 -9 -9 -9 -10 -10 -9 -8 -8 -8 -8 -9 -9 -8 -8 -8 -8 -8 -8 -7 -7 -8 -8 -8 -7 -6 -6 -7 -8 -8 -8 -8 -8 -9
-10 -10 -10 -10 -10 -10 -10 -10 -10 -10 -9 -9 -9 -9 -9 -10 -10 -10 -10 -9 -9 -9 -10 -10 -9 -9 -8 -9 -8 -8 -7 -7 -8 -8 -8 -7 -6 -6 -7 -7 -8 -8 -8 -8 -8
-10 -10 -10 -11 -11 -10 -10 -10 -10 -10 -10 -10 -9 -9 -9 -10 -10 -10 -10 -10 -10 -10 -10 -10 -9 -9 -9 -9 -8 -8 -7 -7 -7 -7 -7 -7 -7 -6 -7 -8 -8 -9 -9 -8 -8
-11 -11 -11 -11 -11 -11 -11 -10 -10 -10 -10 -9 -9 -9 -9 -10 -10 -10 -11 -10 -10 -10 -10 -10 -9 -9 -9 -9 -9 -8 -7 -7 -7 -7 -7 -8 -7 -7 -7 -8 -9 -9 -9 -8 -9
-11 -11 -11 -11 -11 -11 -11 -11 -11 -10 -10 -10 -10 -10 -10 -9 -10 -10 -11 -11 -11 -11 -10 -10 -9 -9 -9 -9 -9 -9 -8 -7 -7 -7 -8 -7 -7 -7 -8 -8 -9 -9 -9 -9 -9
-11 -11 -11 -11 -11 -11 -11 -11 -11 -11 -11 -10 -10 -10 -10 -10 -10 -11 -11 -11 -12 -11 -11 -10 -10 -10 -10 -10 -10 -10 -9 -8 -8 -8 -8 -8 -8 -7 -8 -9 -9 -10 -9 -9 -10
-11 -12 -11 -11 -11 -11 -12 -11 -11 -11 -11 -11 -10 -10 -10 -10 -10 -11 -12 -12 -12 -11 -11 -10 -10 -10 -10 -10 -10 -11 -9 -9 -9 -8 -8 -8 -10 -8 -9 -9 -10 -10 -10 -10 -10
-11 -11 -12 -11 -12 -11 -11 -12 -11 -11 -11 -11 -11 -10 -10 -10 -10 -11 -11 -12 -11 -11 -11 -11 -10 -10 -10 -9 -10 -10 -10 -10 -10 -9 -8 -9 -9 -9 -9 -10 -10 -10 -10 -11 -10
-11 -11 -11 -12 -12 -12 -11 -12 -12 -12 -12 -11 -11 -11 -11 -10 -11 -11 -11 -11 -11 -11 -11 -11 -10 -10 -10 -10 -9 -9 -9 -9 -9 -8 -9 -9 -9 -9 -9 -10 -11 -11 -11 -11 -11
-12 -12 -12 -11 -12 -12 -11 -12 -12 -12 -12 -11 -11 -11 -11 -11 -11 -11 -11 -11 -12 -12 -11 -11 -11 -10 -10 -9 -9 -9 -10 -10 -10 -9 -9 -9 -9 -9 -10 -10 -10 -10 -11 -11 -11
-13 -13 -12 -12 -12 -12 -11 -12 -12 -12 -12 -12 -11 -11 -11 -11 -11 -11 -11 -12 -12 -12 -11 -11 -11 -11 -10 -10 -10 -9 -10 -10 -9 -9 -10 -9 -10 -10 -10 -10 -10 -11 -11 -11 -11
-15 -14 -13 -13 -13 -12 -12 -12 -12 -13 -12 -12 -12 -11 -11 -11 -12 -11 -11 -11 -12 -12 -12 -11 -11 -11 -10 -10 -10 -10 -10 -10 -11 -10 -12 -10 -11 -11 -10 -10 -10 -11 -12 -12 -12
-16 -16 -15 -14 -14 -13 -12 -12 -13 -13 -12 -12 -12 -11 -12 -12 -11 -12 -11 -11 -12 -12 -12 -14 -12 -11 -11 -11 -11 -11 -11 -11 -12 -12 -12 -12 -11 -11 -10 -10 -10 -11 -12 -13 -12
-17 -17 -16 -15 -15 -14 -13 -13 -13 -13 -13 -12 -12 -12 -12 -12 -12 -12 -11 -12 -12 -12 -12 -12 -12 -12 -11 -11 -11 -11 -12 -13 -13 -12 -11 -12 -11 -11 -11 -10 -11 -12 -12 -12 -12
-19 -18 -17 -16 -16 -15 -14 -13 -13 -13 -14 -13 -13 -13 -13 -13 -13 -12 -12 -12 -12 -12 -14 -13 -12 -11 -11 -11 -11 -11 -12 -11 -12 -11 -11 -12 -12 -12 -11 -11 -12 -12 -12 -12 -11
-19 -18 -17 -17 -16 -15 -14 -14 -13 -14 -14 -13 -13 -14 -15 -15 -15 -14 -13 -13 -13 -13 -14 -14 -13 -13 -13 -12 -13 -13 -13 -13 -12 -12 -12 -12 -12 -12 -12 -12 -12 -12 -12 -12 -12
-20 -18 -17 -17 -17 -16 -15 -14 -14 -15 -14 -14 -15 -15 -15 -15 -15 -15 -15 -14 -14 -13 -14 -14 -13 -14 -13 -13 -13 -13 -13 -13 -13 -12 -12 -12 -13 -12 -12 -12 -12 -12 -12 -12 -12
-19 -18 -18 -17 -17 -16 -15 -15 -15 -15 -15 -15 -14 -14 -13 -14 -14 -15 -14 -15 -15 -14 -14 -14 -13 -14 -14 -14 -14 -13 -13 -13 -13 -13 -12 -12 -13 -13 -12 -12 -12 -12 -12 -12 -12
-19 -18 -18 -17 -16 -16 -16 -16 -16 -16 -15 -15 -15 -15 -15 -15 -15 -14 -14 -15 -14 -14 -14 -14 -14 -14 -14 -13 -13 -14 -14 -14 -13 -13 -13 -13 -13 -13 -13 -13 -13 -13 -13 -12 -12
-18 -18 -18 -17 -17 -17 -16 -16 -16 -16 -15 -15 -15 -14 -15 -15 -15 -15 -14 -15 -15 -15 -13 -14 -13 -14 -14 -13 -13 -13 -13 -13 -13 -13 -13 -13 -13 -14 -13 -13 -13 -13 -13 -13 -13
-18 -18 -17 -17 -17 -16 -16 -16 -15 -15 -15 -15 -14 -15 -14 -14 -14 -14 -15 -15 -15 -15 -14 -14 -14 -14 -14 -14 -14 -14 -14 -14 -14 -14 -14 -14 -14 -14 -14 -13 -13 -13 -13 -13 -13
-18 -18 -17 -17 -17 -16 -16 -16 -16 -16 -15 -15 -15 -15 -15 -15 -14 -14 -14 -14 -15 -14 -14 -14 -14 -14 -14 -14 -14 -14 -14 -14 -14 -14 -15 -14 -15 -13 -14 -14 -13 -14 -14 -13 -13
-18 -18 -17 -17 -16 -16 -16 -16 -16 -16 -15 -15 -15 -15 -15 -15 -15 -14 -14 -14 -15 -15 -15 -14 -14 -14 -14 -14 -14 -14 -14 -14 -14 -14 -14 -15 -15 -15 -15 -14 -14 -14 -14 -14 -14
-17 -16 -16 -17 -16 -16 -16 -16 -16 -16 -16 -16 -15 -15 -15 -15 -15 -15 -15 -14 -14 -14 -14 -14 -14 -14 -14 -14 -14 -14 -13 -14 -14 -14 -15 -15 -14 -15 -15 -15 -15 -15 -15 -15 -15
Height
5818 5817 5816 5815 5814 5814 5814 5815 5817 5818 5820 5821 5822 5824 5826 5829 5832 5836 5842 5846 5846 5853 5859 5864 5869 5873 5876 5880 5884 5886 5891 5896 5897 5897 5897 5898 5901 5907 5910 5911 5913 5914 5915 5916 5915
5812 5811 5810 5809 5808 5808 5807 5809 5810 5812 5814 5815 5817 5818 5819 5820 5823 5827 5832 5833 5839 5846 5851 5855 5860 5864 5868 5873 5878 5881 5887 5891 5891 5891 5890 5891 5896 5903 5907 5907 5909 5912 5911 5912 5913
5807 5806 5805 5803 5802 5802 5801 5801 5803 5805 5807 5809 5810 5812 5813 5814 5815 5818 5821 5825 5830 5836 5841 5845 5850 5856 5862 5866 5872 5877 5882 5882 5885 5884 5885 5886 5890 5896 5902 5904 5906 5907 5908 5909 5911
5801 5800 5798 5797 5796 5795 5795 5795 5795 5797 5799 5801 5803 5805 5807 5808 5808 5811 5812 5816 5821 5826 5832 5837 5843 5848 5853 5859 5865 5869 5874 5876 5877 5877 5880 5882 5883 5889 5897 5898 5902 5903 5904 5906 5908
5795 5793 5791 5790 5789 5788 5788 5788 5789 5790 5792 5793 5796 5798 5800 5802 5801 5803 5805 5808 5813 5819 5825 5830 5835 5838 5843 5849 5853 5861 5865 5868 5868 5870 5873 5878 5879 5883 5889 5894 5898 5899 5900 5904 5905
5788 5786 5785 5783 5782 5781 5781 5781 5782 5783 5784 5786 5788 5791 5794 5795 5795 5798 5798 5800 5805 5811 5818 5824 5829 5831 5834 5839 5843 5850 5855 5860 5860 5864 5867 5874 5876 5879 5884 5890 5892 5894 5897 5900 5901
5780 5778 5777 5776 5775 5774 5773 5774 5775 5776 5777 5778 5780 5782 5785 5787 5789 5792 5792 5794 5798 5804 5811 5816 5820 5825 5830 5833 5836 5842 5848 5852 5855 5860 5864 5867 5870 5876 5878 5884 5886 5889 5892 5895 5898
5771 5770 5769 5768 5767 5767 5766 5766 5767 5769 5770 5771 5772 5775 5776 5780 5782 5785 5786 5789 5794 5799 5805 5810 5815 5819 5825 5827 5830 5835 5840 5845 5850 5853 5859 5861 5867 5869 5872 5878 5882 5884 5886 5890 5893
5761 5760 5760 5760 5759 5759 5759 5759 5760 5762 5763 5764 5766 5767 5770 5774 5777 5780 5781 5784 5788 5793 5799 5804 5809 5815 5820 5824 5827 5830 5834 5840 5843 5848 5852 5856 5862 5861 5867 5871 5876 5878 5881 5885 5888
5751 5750 5750 5751 5751 5751 5752 5752 5753 5755 5757 5757 5759 5762 5764 5768 5771 5774 5776 5779 5784 5788 5793 5800 5805 5810 5815 5819 5823 5825 5829 5834 5839 5842 5846 5851 5857 5856 5861 5865 5870 5873 5877 5881 5883
5741 5741 5740 5741 5742 5743 5744 5745 5748 5750 5750 5750 5753 5753 5757 5761 5765 5769 5771 5775 5779 5783 5789 5796 5801 5807 5812 5815 5817 5821 5826 5830 5832 5836 5841 5845 5849 5853 5856 5861 5864 5869 5873 5875 5877
5728 5729 5730 5731 5733 5734 5735 5737 5739 5743 5743 5744 5746 5748 5752 5755 5759 5764 5767 5772 5775 5781 5785 5792 5797 5802 5804 5808 5812 5817 5821 5825 5824 5832 5838 5840 5844 5848 5851 5855 5858 5863 5867 5869 5870
5712 5714 5717 5719 5722 5725 5727 5730 5732 5734 5736 5739 5741 5742 5747 5750 5754 5759 5763 5767 5772 5775 5782 5789 5794 5794 5798 5804 5808 5813 5817 5820 5824 5827 5832 5836 5837 5842 5845 5849 5853 5857 5860 5863 5864
5694 5697 5702 5706 5711 5713 5718 5722 5725 5727 5730 5733 5736 5736 5741 5745 5749 5753 5757 5762 5767 5772 5778 5782 5784 5789 5794 5799 5804 5809 5813 5814 5819 5824 5827 5831 5834 5835 5839 5843 5847 5851 5855 5857 5859
5670 5677 5686 5692 5697 5700 5710 5713 5717 5721 5725 5726 5730 5732 5736 5741 5746 5749 5753 5757 5762 5768 5774 5779 5780 5786 5791 5797 5801 5806 5807 5812 5815 5819 5822 5825 5830 5832 5832 5835 5841 5845 5849 5850 5851
5645 5654 5667 5678 5685 5689 5698 5704 5710 5715 5718 5721 5724 5728 5732 5735 5740 5742 5748 5753 5758 5763 5768 5772 5774 5779 5786 5790 5795 5800 5804 5808 5811 5816 5820 5821 5825 5827 5827 5831 5835 5838 5842 5844 5844
5622 5634 5650 5663 5672 5679 5688 5695 5703 5707 5713 5717 5721 5724 5728 5731 5735 5739 5744 5748 5753 5758 5763 5766 5771 5777 5783 5786 5790 5795 5800 5806 5812 5815 5822 5815 5820 5824 5819 5823 5827 5832 5834 5837 5840
5606 5618 5635 5650 5660 5670 5679 5688 5695 5704 5707 5713 5717 5720 5725 5728 5733 5737 5740 5745 5751 5756 5763 5766 5771 5774 5778 5782 5787 5791 5797 5808 5810 5813 5815 5811 5815 5816 5817 5820 5823 5826 5829 5832 5834
5597 5609 5626 5641 5652 5662 5673 5680 5690 5698 5703 5710 5715 5718 5723 5727 5734 5734 5739 5743 5749 5753 5763 5766 5773 5770 5775 5779 5785 5788 5791 5799 5801 5802 5807 5809 5808 5810 5813 5815 5818 5820 5822 5824 5826
5595 5606 5621 5635 5647 5657 5668 5678 5687 5693 5699 5706 5712 5717 5722 5725 5731 5734 5737 5741 5746 5751 5756 5763 5768 5768 5773 5778 5782 5786 5791 5795 5798 5804 5806 5804 5804 5809 5806 5809 5810 5811 5813 5815 5817
5601 5610 5622 5634 5646 5656 5665 5676 5684 5689 5695 5703 5707 5713 5719 5724 5730 5734 5738 5740 5743 5749 5752 5759 5763 5767 5771 5775 5780 5782 5785 5789 5795 5797 5801 5803 5803 5799 5800 5802 5803 5804 5805 5806 5807
5609 5617 5626 5637 5649 5655 5664 5672 5680 5686 5692 5698 5705 5711 5715 5719 5725 5729 5735 5736 5739 5745 5750 5754 5758 5763 5769 5769 5773 5775 5783 5784 5788 5792 5792 5795 5794 5792 5794 5795 5796 5796 5797 5797 5798
5620 5626 5633 5640 5649 5657 5665 5672 5678 5684 5689 5695 5701 5707 5712 5717 5722 5726 5729 5734 5738 5743 5745 5750 5754 5760 5762 5767 5770 5772 5774 5778 5779 5783 5784 5788 5790 5784 5786 5787 5788 5788 5788 5789 5789
5632 5636 5641 5646 5653 5659 5666 5672 5678 5683 5688 5693 5699 5706 5711 5715 5717 5719 5725 5730 5734 5738 5742 5746 5749 5754 5762 5764 5764 5764 5768 5771 5774 5776 5781 5780 5779 5776 5778 5778 5779 5780 5780 5779 5780
5642 5645 5649 5651 5658 5663 5669 5675 5680 5685 5691 5695 5700 5704 5709 5713 5714 5715 5718 5725 5728 5733 5737 5740 5743 5747 5750 5753 5755 5757 5760 5764 5766 5768 5769 5774 5770 5767 5769 5768 5768 5768 5768 5768 5768
5652 5653 5653 5658 5661 5666 5671 5676 5681 5686 5691 5695 5699 5703 5706 5709 5712 5715 5718 5720 5723 5726 5730 5736 5737 5741 5741 5743 5743 5747 5751 5754 5756 5757 5758 5760 5756 5757 5757 5757 5757 5757 5757 5757 5756
5658 5659 5661 5662 5666 5671 5675 5679 5682 5686 5690 5694 5697 5700 5702 5706 5709 5711 5713 5715 5718 5721 5725 5728 5730 5733 5735 5736 5736 5739 5739 5743 5744 5745 5747 5747 5743 5745 5746 5746 5746 5744 5744 5743 5743
Wind_Speed
18 19 20 20 21 22 27 27 27 25 25 23 25 29 34 38 42 44 49 51 54 50 46 43 40 37 35 33 32 31 27 19 19 23 29 29 28 20 16 18 18 17 18 16 17
19 19 20 20 20 20 22 28 28 28 27 26 25 24 25 28 35 39 42 48 51 50 47 44 44 43 41 37 34 33 28 24 25 26 30 33 31 22 21 21 19 16 20 17 17
19 20 21 21 21 21 21 23 29 29 29 29 28 24 23 25 27 31 40 42 46 48 48 46 45 46 43 41 36 34 29 30 26 30 31 33 33 27 24 23 20 20 20 19 16
20 22 22 22 22 22 22 22 24 28 29 29 29 27 24 24 29 26 34 39 41 44 47 46 44 43 47 46 40 37 34 32 32 33 32 34 35 30 25 29 23 23 26 21 16
26 25 25 23 22 23 23 22 23 25 27 27 27 28 26 23 26 25 28 35 38 40 38 38 39 40 43 44 48 45 41 35 38 37 36 35 36 34 29 27 26 27 30 19 17
29 29 27 25 22 23 24 24 23 24 25 25 26 28 27 28 27 22 24 33 36 39 38 36 33 35 38 42 45 47 47 41 43 41 37 34 36 33 32 26 27 28 27 22 20
30 29 28 26 23 21 23 24 24 23 24 25 27 28 29 32 29 23 23 30 36 39 39 39 35 34 34 36 37 43 49 47 43 42 36 34 37 31 34 29 30 31 31 25 20
32 29 28 27 25 22 22 23 24 23 23 24 26 28 29 28 28 23 24 28 33 37 39 39 37 34 32 28 30 35 44 42 44 44 35 36 32 33 33 32 34 35 33 25 21
31 31 29 28 26 23 21 21 22 22 22 23 24 26 27 26 26 23 24 28 31 36 38 37 36 30 28 28 28 28 32 35 41 40 36 34 29 35 33 34 36 37 35 29 26
30 29 29 28 27 25 22 21 20 21 21 24 24 25 25 25 25 22 25 25 30 32 37 36 32 28 27 26 25 29 28 29 33 37 34 33 30 32 31 34 34 38 34 30 29
30 28 30 27 27 26 23 23 20 20 21 25 23 26 25 26 25 21 19 21 31 33 34 32 30 25 23 25 28 26 27 30 35 34 32 32 34 28 32 35 35 34 33 31 29
35 32 28 30 26 27 25 23 22 19 24 25 24 23 24 26 26 24 19 20 25 28 32 31 26 25 27 29 29 29 31 32 37 34 30 32 30 28 32 38 38 35 33 29 30
42 37 32 31 29 28 27 24 24 23 24 24 22 24 24 25 26 28 24 21 19 28 31 28 25 31 31 29 29 29 28 31 30 31 29 29 31 29 31 35 39 39 37 34 34
49 46 39 34 33 32 27 25 25 25 24 24 21 24 22 24 25 28 26 23 21 23 30 29 32 32 29 28 28 30 30 34 33 32 31 31 26 31 33 35 36 38 37 37 36
49 50 45 38 34 35 29 27 25 26 24 26 22 23 22 23 22 25 28 24 21 22 29 30 33 30 29 24 26 27 31 30 30 30 29 29 28 26 31 33 32 32 34 37 37
46 49 47 41 35 37 32 29 27 27 26 23 22 20 22 25 25 28 28 26 24 25 29 23 32 32 26 25 26 26 28 27 27 23 23 24 24 29 32 28 29 28 24 30 38
41 46 45 41 36 37 34 31 30 29 25 24 20 19 23 25 27 28 29 29 28 29 32 32 29 26 24 27 28 29 29 21 19 19 16 27 24 20 27 22 26 24 25 30 33
27 39 41 40 36 36 35 34 32 24 26 21 20 21 23 25 24 27 28 27 28 27 24 26 26 26 25 27 29 30 32 17 17 17 21 28 22 22 30 21 23 27 29 30 33
18 29 36 37 34 34 34 34 29 23 25 22 20 21 22 23 20 25 26 26 26 29 24 23 17 25 22 26 30 35 34 28 25 25 19 14 23 24 23 25 24 26 27 29 31
13 25 31 34 32 32 33 30 26 25 24 22 20 23 20 20 19 20 22 24 25 30 30 24 24 25 23 34 34 33 30 28 28 22 19 21 20 18 26 28 30 32 33 32 33
13 22 27 30 29 30 30 27 25 27 27 26 25 26 27 27 20 19 19 23 27 39 37 29 24 27 28 35 28 37 35 32 23 24 18 20 17 27 29 26 27 29 29 29 30
17 21 23 26 25 27 28 28 27 28 29 27 26 26 31 25 29 28 23 26 34 41 37 35 36 19 27 33 35 32 28 29 29 26 27 27 20 27 27 26 27 30 29 30 31
18 20 21 23 22 25 25 26 28 30 33 30 29 28 29 31 31 26 25 25 35 41 41 38 40 26 29 33 36 34 32 31 31 30 26 23 25 31 31 31 30 31 30 29 32
17 20 19 20 21 23 25 26 27 29 31 31 28 28 29 31 31 36 29 31 35 41 43 36 38 38 27 29 32 38 35 34 32 29 25 28 27 31 32 33 32 34 34 34 34
15 15 15 22 20 20 21 20 18 23 24 24 24 24 27 29 28 25 25 31 37 38 37 39 41 39 40 39 37 38 37 38 34 32 31 27 34 37 35 36 37 39 39 40 41
13 8 6 18 23 21 19 18 16 18 19 20 20 20 21 23 26 28 27 27 24 20 30 40 42 44 49 37 49 52 43 42 42 40 36 36 41 43 43 43 43 42 45 47 46
21 19 14 16 18 18 18 17 17 16 16 17 18 19 18 20 21 21 21 20 18 16 19 23 22 29 29 29 31 32 36 40 49 45 43 43 48 47 46 47 49 51 50 47 43
Wind_Direction
290 285 279 278 276 270 257 253 252 246 251 253 254 255 253 250 247 241 238 237 239 237 239 238 235 234 231 232 234 236 238 234 229 234 240 243 242 230 221 222 224 231 245 245 263
295 291 287 281 278 275 266 251 250 249 251 251 254 260 258 255 250 247 239 236 235 237 239 240 237 235 231 230 230 234 233 233 227 229 237 244 242 231 225 227 228 227 236 246 259
299 294 288 284 279 274 273 264 249 249 250 251 252 255 257 258 258 247 243 238 237 235 236 238 240 239 236 231 229 232 228 229 230 230 232 243 248 239 230 232 228 217 228 243 260
305 303 291 282 276 273 269 267 258 250 250 252 249 245 252 259 258 255 244 239 235 234 235 237 239 241 239 235 232 230 228 224 229 235 232 235 246 245 233 234 233 225 230 221 225
296 300 300 282 271 269 266 262 258 253 252 253 244 240 248 254 255 252 247 235 231 231 231 231 234 237 237 237 236 229 226 222 229 235 236 235 243 247 239 235 231 231 229 229 229
287 291 293 287 273 263 262 260 256 254 252 251 245 243 246 241 255 263 255 232 224 223 223 226 231 232 232 235 235 229 223 224 229 233 238 239 245 250 246 235 237 237 239 242 246
281 280 283 285 273 266 260 258 256 253 250 248 247 248 246 242 250 257 254 231 220 219 220 224 228 231 235 240 240 232 223 225 234 235 240 239 242 249 250 238 234 237 244 246 254
280 278 276 276 270 263 261 258 255 253 251 247 244 243 243 244 241 245 245 227 219 217 219 223 227 230 233 237 230 222 224 231 232 231 236 242 244 245 247 240 231 238 247 251 250
281 275 272 270 266 260 257 258 254 251 250 247 243 240 239 238 231 241 242 226 216 214 216 219 223 223 228 227 222 220 219 222 227 229 232 237 235 243 242 240 235 237 244 251 253
281 276 271 264 262 258 253 251 252 247 245 246 242 237 235 229 228 241 239 227 218 217 217 218 221 221 222 222 228 226 218 220 229 228 229 231 215 239 238 237 235 238 244 246 254
280 274 269 265 257 253 250 248 245 243 239 240 240 237 229 222 222 228 226 225 219 216 215 215 217 218 217 212 212 214 212 216 221 225 227 230 229 235 235 235 233 227 232 241 249
270 268 262 261 254 250 247 244 241 235 236 236 237 236 229 222 217 220 226 231 226 219 216 213 208 208 210 208 207 206 210 214 223 224 226 231 235 232 230 232 233 233 237 240 234
258 255 252 250 251 246 245 241 236 233 233 236 234 232 229 223 218 215 222 226 229 220 212 210 205 208 209 210 210 209 210 218 224 226 229 232 238 230 232 234 236 239 241 237 243
257 251 243 240 238 242 238 236 234 229 231 235 227 228 222 218 214 212 210 212 225 220 207 203 209 211 209 209 211 212 211 217 224 226 232 229 236 233 230 231 234 237 237 237 243
253 245 240 234 230 232 229 227 229 224 224 228 221 227 218 216 214 211 207 204 207 212 205 207 213 213 214 215 220 209 213 218 223 228 223 232 223 258 244 232 232 235 239 241 238
250 241 231 228 227 225 220 220 221 220 219 223 218 219 211 213 208 203 205 200 194 202 200 197 209 212 209 212 216 217 215 217 221 223 234 242 227 241 251 240 239 241 239 238 241
247 234 223 219 220 219 213 213 215 216 215 218 213 207 206 210 211 208 205 202 199 194 205 211 213 216 215 213 213 208 200 198 207 216 216 242 227 218 246 234 226 230 222 221 226
246 224 215 209 212 214 209 208 209 207 209 214 206 199 205 205 208 210 204 202 202 195 200 207 212 221 214 214 216 211 205 201 218 227 231 241 225 228 238 229 223 227 226 230 237
231 206 203 200 203 206 205 207 201 200 208 203 202 197 188 193 202 203 207 204 203 194 182 204 200 228 210 204 191 201 205 201 203 213 207 244 236 244 246 244 242 243 244 246 245
194 185 189 191 194 200 199 201 195 193 197 192 198 183 200 197 191 196 203 197 195 203 179 195 213 212 199 190 195 204 216 217 223 233 233 253 249 245 246 246 248 247 251 252 252
148 164 176 183 187 193 196 194 189 187 188 189 201 197 183 198 188 198 211 207 186 187 195 190 192 214 203 199 214 212 220 222 217 224 229 240 257 236 250 243 243 246 250 255 259
125 148 161 171 180 189 193 188 186 187 191 193 196 202 203 207 192 196 194 210 196 194 198 202 202 200 209 212 209 213 221 244 240 253 256 235 237 243 236 241 247 250 253 256 258
106 131 146 162 170 182 186 189 188 187 190 194 196 192 208 204 207 212 214 206 202 200 209 206 212 211 215 227 224 230 231 237 241 237 245 244 250 251 247 249 250 251 253 258 260
99 123 137 148 162 169 179 188 190 196 195 199 200 193 205 208 215 215 209 211 211 213 214 217 224 222 226 230 232 237 237 233 237 237 242 247 246 249 253 257 256 255 260 264 263
86 114 131 143 150 163 175 184 188 191 198 202 209 210 210 217 232 238 228 218 216 221 227 227 228 229 232 234 234 241 241 239 239 236 235 241 246 248 253 257 258 262 267 270 271
75 128 153 149 146 153 161 168 171 177 189 197 206 212 218 223 226 229 239 246 252 253 235 240 249 247 258 269 236 239 244 242 237 237 238 242 252 254 254 256 263 269 272 273 274
67 60 77 149 147 145 148 149 152 159 172 180 192 201 208 214 218 224 235 240 242 239 223 223 244 241 245 259 261 260 253 247 241 236 238 243 248 254 257 262 269 273 274 274 273